• In Deutschland
  • Länderverzeichnis
  • Für 7 Tage
  • Wassertemperatur
  • Satellitenkarten
  • Wetterkarte
  • Widgets
  • user-avatar
    Anmelden

    Stündliche Wetter Berat

    Heute, 26 Juni, Montag

    Zeit Temperatur Niederschläge Wind Luftdruck Luftfeuchtigkeit
    00:00 +23°C° 0 mm 1 m/S 742 mmHg 80%
    01:00 +23°C° 0 mm 1 m/S 742 mmHg 81%
    02:00 +23°C° 0,1 mm 1 m/S 742 mmHg 82%
    03:00 +23°C° 0,1 mm 1 m/S 742 mmHg 83%
    04:00 +22°C° 0,1 mm 1 m/S 742 mmHg 83%
    05:00 +25°C° 0,1 mm 1 m/S 742 mmHg 75%
    06:00 +27°C° 0,1 mm 1 m/S 742 mmHg 66%
    07:00 +29°C° 0,1 mm 1 m/S 742 mmHg 58%
    08:00 +31°C° 0,1 mm 1 m/S 742 mmHg 52%
    09:00 +32°C° 0,1 mm 1 m/S 742 mmHg 46%
    10:00 +34°C° 0,1 mm 2 m/S 742 mmHg 40%
    11:00 +35°C° 0,1 mm 2 m/S 742 mmHg 39%
    12:00 +35°C° 0,1 mm 3 m/S 742 mmHg 39%
    13:00 +36°C° 0,1 mm 3 m/S 742 mmHg 38%
    14:00 +35°C° 0,3 mm 3 m/S 742 mmHg 41%
    15:00 +34°C° 0,3 mm 3 m/S 742 mmHg 43%
    16:00 +34°C° 0,3 mm 3 m/S 741 mmHg 46%
    17:00 +30°C° 0 mm 2 m/S 741 mmHg 54%
    18:00 +28°C° 0 mm 2 m/S 741 mmHg 62%
    19:00 +26°C° 0 mm 1 m/S 741 mmHg 71%
    20:00 +25°C° 0 mm 1 m/S 742 mmHg 75%
    21:00 +23°C° 0 mm 1 m/S 742 mmHg 79%
    22:00 +20°C° 0 mm 0 m/S 742 mmHg 83%
    23:00 +20°C° 0 mm 0 m/S 742 mmHg 82%

    Morgen, 27 Juni, Dienstag

    Zeit Temperatur Niederschläge Wind Luftdruck Luftfeuchtigkeit
    00:00 +20°C° 0 mm 0 m/S 742 mmHg 82%
    01:00 +19°C° 0 mm 0 m/S 742 mmHg 82%
    02:00 +19°C° 0 mm 0 m/S 742 mmHg 82%
    03:00 +19°C° 0 mm 0 m/S 742 mmHg 82%
    04:00 +18°C° 0 mm 0 m/S 742 mmHg 82%
    05:00 +21°C° 0 mm 0 m/S 742 mmHg 73%
    06:00 +24°C° 0 mm 0 m/S 743 mmHg 64%
    07:00 +27°C° 0 mm 0 m/S 743 mmHg 55%
    08:00 +30°C° 0 mm 1 m/S 743 mmHg 49%
    09:00 +32°C° 0 mm 1 m/S 743 mmHg 43%
    10:00 +34°C° 0 mm 1 m/S 743 mmHg 37%
    11:00 +35°C° 0 mm 2 m/S 743 mmHg 34%
    12:00 +36°C° 0 mm 2 m/S 742 mmHg 31%
    13:00 +36°C° 0 mm 3 m/S 742 mmHg 29%
    14:00 +36°C° 0 mm 3 m/S 742 mmHg 30%
    15:00 +35°C° 0 mm 3 m/S 742 mmHg 32%
    16:00 +35°C° 0 mm 3 m/S 741 mmHg 34%
    17:00 +31°C° 0 mm 2 m/S 741 mmHg 44%
    18:00 +28°C° 0 mm 2 m/S 741 mmHg 54%
    19:00 +25°C° 0 mm 1 m/S 741 mmHg 64%
    20:00 +24°C° 0 mm 1 m/S 742 mmHg 66%
    21:00 +23°C° 0 mm 1 m/S 742 mmHg 68%
    22:00 +22°C° 0 mm 1 m/S 742 mmHg 70%
    23:00 +22°C° 0 mm 1 m/S 742 mmHg 70%

    übermorgen, 28 Juni, Mittwoch

    Zeit Temperatur Niederschläge Wind Luftdruck Luftfeuchtigkeit
    00:00 +22°C° 0 mm 1 m/S 742 mmHg 70%
    01:00 +21°C° 0 mm 2 m/S 741 mmHg 69%
    02:00 +21°C° 0 mm 2 m/S 741 mmHg 69%
    03:00 +21°C° 0 mm 2 m/S 741 mmHg 68%
    04:00 +21°C° 0 mm 2 m/S 741 mmHg 68%
    05:00 +24°C° 0 mm 2 m/S 741 mmHg 61%
    06:00 +27°C° 0 mm 2 m/S 742 mmHg 54%
    07:00 +29°C° 0 mm 2 m/S 742 mmHg 47%
    08:00 +31°C° 0 mm 2 m/S 742 mmHg 42%
    09:00 +34°C° 0 mm 3 m/S 742 mmHg 38%
    10:00 +35°C° 0 mm 3 m/S 742 mmHg 33%
    11:00 +36°C° 0 mm 3 m/S 742 mmHg 31%
    12:00 +36°C° 0 mm 4 m/S 741 mmHg 30%
    13:00 +37°C° 0 mm 4 m/S 741 mmHg 29%
    14:00 +36°C° 0 mm 4 m/S 741 mmHg 31%
    15:00 +36°C° 0 mm 4 m/S 741 mmHg 33%
    16:00 +35°C° 0 mm 4 m/S 741 mmHg 35%
    17:00 +31°C° 0 mm 3 m/S 741 mmHg 45%
    18:00 +29°C° 0 mm 2 m/S 741 mmHg 54%
    19:00 +26°C° 0 mm 2 m/S 741 mmHg 64%
    20:00 +25°C° 0 mm 2 m/S 741 mmHg 65%
    21:00 +25°C° 0 mm 2 m/S 742 mmHg 66%
    22:00 +24°C° 0 mm 2 m/S 742 mmHg 67%
    23:00 +24°C° 0,1 mm 2 m/S 742 mmHg 65%

    29 Juni, Donnerstag

    Zeit Temperatur Niederschläge Wind Luftdruck Luftfeuchtigkeit
    00:00 +24°C° 0,1 mm 2 m/S 741 mmHg 64%
    01:00 +24°C° 0,1 mm 3 m/S 741 mmHg 62%
    02:00 +24°C° 0 mm 3 m/S 741 mmHg 60%
    03:00 +24°C° 0 mm 3 m/S 741 mmHg 59%
    04:00 +24°C° 0 mm 3 m/S 741 mmHg 57%
    05:00 +26°C° 0 mm 3 m/S 741 mmHg 52%
    06:00 +29°C° 0 mm 3 m/S 741 mmHg 47%
    07:00 +31°C° 0 mm 3 m/S 741 mmHg 42%
    08:00 +34°C° 0 mm 4 m/S 742 mmHg 37%
    09:00 +36°C° 0 mm 5 m/S 742 mmHg 31%
    10:00 +39°C° 0 mm 5 m/S 742 mmHg 26%
    11:00 +40°C° 0 mm 6 m/S 742 mmHg 25%
    12:00 +40°C° 0 mm 6 m/S 741 mmHg 24%
    13:00 +41°C° 0 mm 7 m/S 741 mmHg 22%
    14:00 +40°C° 0 mm 6 m/S 741 mmHg 24%
    15:00 +39°C° 0 mm 6 m/S 741 mmHg 26%
    16:00 +37°C° 0 mm 5 m/S 741 mmHg 27%
    17:00 +34°C° 0 mm 5 m/S 741 mmHg 36%
    18:00 +32°C° 0 mm 4 m/S 742 mmHg 46%
    19:00 +28°C° 0 mm 3 m/S 742 mmHg 55%
    20:00 +27°C° 0 mm 3 m/S 742 mmHg 56%
    21:00 +26°C° 0 mm 3 m/S 743 mmHg 56%
    22:00 +25°C° 0 mm 3 m/S 743 mmHg 57%
    23:00 +25°C° 0 mm 3 m/S 743 mmHg 57%

    30 Juni, Freitag

    Zeit Temperatur Niederschläge Wind Luftdruck Luftfeuchtigkeit
    00:00 +25°C° 0 mm 3 m/S 743 mmHg 57%
    01:00 +24°C° 0 mm 2 m/S 743 mmHg 56%
    02:00 +24°C° 0 mm 2 m/S 743 mmHg 56%
    03:00 +23°C° 0 mm 2 m/S 743 mmHg 56%
    04:00 +23°C° 0 mm 1 m/S 743 mmHg 56%
    05:00 +26°C° 0 mm 1 m/S 744 mmHg 50%
    06:00 +28°C° 0 mm 1 m/S 744 mmHg 45%
    07:00 +31°C° 0 mm 1 m/S 745 mmHg 40%
    08:00 +33°C° 0 mm 1 m/S 745 mmHg 35%
    09:00 +35°C° 0 mm 1 m/S 744 mmHg 31%
    10:00 +37°C° 0 mm 1 m/S 744 mmHg 26%
    11:00 +39°C° 0 mm 1 m/S 744 mmHg 25%
    12:00 +40°C° 0 mm 2 m/S 744 mmHg 24%
    13:00 +40°C° 0 mm 3 m/S 744 mmHg 22%
    14:00 +39°C° 0 mm 3 m/S 743 mmHg 25%
    15:00 +39°C° 0 mm 3 m/S 743 mmHg 28%
    16:00 +38°C° 0 mm 3 m/S 743 mmHg 31%
    17:00 +35°C° 0 mm 2 m/S 743 mmHg 41%
    18:00 +31°C° 0 mm 1 m/S 743 mmHg 50%
    19:00 +28°C° 0 mm 1 m/S 743 mmHg 60%
    20:00 +28°C° 0 mm 1 m/S 743 mmHg 60%
    21:00 +27°C° 0 mm 1 m/S 743 mmHg 60%
    22:00 +26°C° 0 mm 1 m/S 743 mmHg 61%
    23:00 +26°C° 0 mm 1 m/S 743 mmHg 60%

    1 Juli, Samstag

    Zeit Temperatur Niederschläge Wind Luftdruck Luftfeuchtigkeit
    00:00 +26°C° 0 mm 1 m/S 742 mmHg 58%
    01:00 +26°C° 0 mm 2 m/S 742 mmHg 57%
    02:00 +26°C° 0 mm 2 m/S 742 mmHg 56%
    03:00 +25°C° 0 mm 2 m/S 742 mmHg 55%
    04:00 +25°C° 0 mm 2 m/S 742 mmHg 54%
    05:00 +28°C° 0 mm 2 m/S 742 mmHg 48%
    06:00 +31°C° 0 mm 2 m/S 742 mmHg 43%
    07:00 +34°C° 0 mm 2 m/S 742 mmHg 37%
    08:00 +36°C° 0 mm 2 m/S 742 mmHg 32%
    09:00 +38°C° 0 mm 2 m/S 742 mmHg 27%
    10:00 +40°C° 0 mm 2 m/S 742 mmHg 21%
    11:00 +40°C° 0 mm 3 m/S 742 mmHg 21%
    12:00 +42°C° 0 mm 3 m/S 742 mmHg 20%
    13:00 +42°C° 0 mm 3 m/S 741 mmHg 20%
    14:00 +40°C° 0 mm 3 m/S 741 mmHg 21%
    15:00 +40°C° 0 mm 3 m/S 741 mmHg 23%
    16:00 +39°C° 0 mm 2 m/S 740 mmHg 25%
    17:00 +35°C° 0 mm 2 m/S 740 mmHg 36%
    18:00 +31°C° 0 mm 1 m/S 740 mmHg 47%
    19:00 +27°C° 0 mm 1 m/S 740 mmHg 58%
    20:00 +26°C° 0 mm 1 m/S 740 mmHg 64%
    21:00 +25°C° 0 mm 1 m/S 740 mmHg 69%
    22:00 +23°C° 0 mm 1 m/S 740 mmHg 75%
    23:00 +23°C° 0 mm 1 m/S 740 mmHg 74%
    Mehr zeigen